Tracking 25372 objects as of 24-Jan-2022
HD Live streaming from Space Station
objects crossing your sky now

SATCOM 1

Track SATCOM 1 now!
SATCOM 1 is classified as:


NORAD ID: 8476
Int'l Code: 1975-117A
Perigee: 35,925.2 km
Apogee: 36,043.0 km
Inclination: 11.4 °
Period: 1,445.8 minutes
Semi major axis: 42355 km
RCS: 2.5118 m2 (large)
Launch date: December 13, 1975
Source: United States (US)
Launch site: AIR FORCE EASTERN TEST RANGE (AFETR)
aabbcc
Your satellite tracking list
Your tracking list is empty




NASA's NSSDC Master Catalog

Two Line Element Set (TLE):
1 08476U 75117A   22022.84257487  .00000079  00000-0  00000-0 0  9995
2 08476  11.3626 318.1043 0013904 227.4062 308.5320  0.99596694 30366
Source of the keplerian elements: AFSPC